Time,TemperatureF,DewpointF,PressureIn,WindDirection,WindDirectionDegrees,WindSpeedMPH,WindSpeedGustMPH,Humidity,HourlyPrecipIn,Conditions,Clouds,dailyrainin,SolarRadiationWatts/m^2,SoftwareType,DateUTC
2013-04-16 00:02:00,70.0,68.0,-100.00,South,174,2.0,7.0,95,0.00,,,0.00,0.000000,,2013-04-16 05:02:00,
2013-04-16 00:32:00,70.0,69.0,-100.00,South,186,2.0,9.0,96,0.00,,,0.00,0.000000,,2013-04-16 05:32:00,
2013-04-16 00:42:00,70.0,69.0,-100.00,South,186,2.0,9.0,96,0.00,,,0.00,0.000000,,2013-04-16 05:42:00,
2013-04-16 00:52:00,70.0,69.0,-100.00,South,186,2.0,9.0,96,0.00,,,0.00,0.000000,,2013-04-16 05:52:00,
2013-04-16 01:02:00,70.0,69.0,-100.00,South,186,2.0,9.0,96,0.00,,,0.00,0.000000,,2013-04-16 06:02:00,
2013-04-16 01:32:00,71.0,70.0,-100.00,SW,216,2.0,5.0,96,0.00,,,0.00,0.000000,,2013-04-16 06:32:00,
2013-04-16 01:42:00,71.0,70.0,-100.00,SW,216,2.0,5.0,96,0.00,,,0.00,0.000000,,2013-04-16 06:42:00,
2013-04-16 01:52:00,71.0,70.0,-100.00,SW,216,2.0,5.0,96,0.00,,,0.00,0.000000,,2013-04-16 06:52:00,
2013-04-16 02:02:00,71.0,70.0,-100.00,SW,216,2.0,5.0,96,0.00,,,0.00,0.000000,,2013-04-16 07:02:00,
2013-04-16 02:32:00,71.0,70.0,-100.00,South,185,2.0,7.0,98,0.00,,,0.00,0.000000,,2013-04-16 07:32:00,
2013-04-16 02:42:00,71.0,70.0,-100.00,South,185,2.0,7.0,98,0.00,,,0.00,0.000000,,2013-04-16 07:42:00,
2013-04-16 02:53:00,71.0,70.0,-100.00,South,185,2.0,7.0,98,0.00,,,0.00,0.000000,,2013-04-16 07:53:00,
2013-04-16 03:02:00,71.0,70.0,-100.00,South,185,2.0,7.0,98,0.00,,,0.00,0.000000,,2013-04-16 08:02:00,
2013-04-16 03:32:00,71.0,70.0,-100.00,SSW,197,2.0,8.0,97,0.00,,,0.00,0.000000,,2013-04-16 08:32:00,
2013-04-16 03:42:00,71.0,70.0,-100.00,SSW,197,2.0,8.0,97,0.00,,,0.00,0.000000,,2013-04-16 08:42:00,
2013-04-16 03:52:00,71.0,70.0,-100.00,SSW,197,2.0,8.0,97,0.00,,,0.00,0.000000,,2013-04-16 08:52:00,
2013-04-16 04:02:00,71.0,70.0,-100.00,SSW,197,2.0,8.0,97,0.00,,,0.00,0.000000,,2013-04-16 09:02:00,
2013-04-16 04:33:00,71.0,70.0,-100.00,SSW,193,2.0,8.0,97,0.00,,,0.00,0.000000,,2013-04-16 09:33:00,
2013-04-16 04:43:00,71.0,70.0,-100.00,SSW,193,2.0,8.0,97,0.00,,,0.00,0.000000,,2013-04-16 09:43:00,
2013-04-16 04:53:00,71.0,70.0,-100.00,SSW,193,2.0,8.0,97,0.00,,,0.00,0.000000,,2013-04-16 09:53:00,
2013-04-16 05:03:00,71.0,70.0,-100.00,SSW,193,2.0,8.0,97,0.00,,,0.00,0.000000,,2013-04-16 10:03:00,
2013-04-16 05:33:00,71.0,70.0,-100.00,SSW,204,2.0,6.0,98,0.00,,,0.00,0.000000,,2013-04-16 10:33:00,
2013-04-16 05:43:00,71.0,70.0,-100.00,SSW,204,2.0,6.0,98,0.00,,,0.00,0.000000,,2013-04-16 10:43:00,
2013-04-16 05:53:00,71.0,70.0,-100.00,SSW,204,2.0,6.0,98,0.00,,,0.00,0.000000,,2013-04-16 10:53:00,
2013-04-16 06:02:00,71.0,70.0,-100.00,SSW,204,2.0,6.0,98,0.00,,,0.00,0.000000,,2013-04-16 11:02:00,
2013-04-16 06:32:00,71.0,70.0,-100.00,SW,214,2.0,6.0,98,0.00,,,0.00,0.000000,,2013-04-16 11:32:00,
2013-04-16 06:42:00,71.0,70.0,-100.00,SW,214,2.0,6.0,98,0.00,,,0.00,0.000000,,2013-04-16 11:42:00,
2013-04-16 06:53:00,71.0,70.0,-100.00,SW,214,2.0,6.0,98,0.00,,,0.00,0.000000,,2013-04-16 11:53:00,
2013-04-16 07:02:00,71.0,70.0,-100.00,SW,214,2.0,6.0,98,0.00,,,0.00,0.000000,,2013-04-16 12:02:00,
2013-04-16 07:32:00,71.0,70.0,-100.00,SSW,201,1.0,6.0,97,0.00,,,0.00,5.000000,,2013-04-16 12:32:00,
2013-04-16 07:42:00,71.0,70.0,-100.00,SSW,201,1.0,6.0,97,0.00,,,0.00,5.000000,,2013-04-16 12:42:00,
2013-04-16 07:52:00,71.0,70.0,-100.00,SSW,201,1.0,6.0,97,0.00,,,0.00,5.000000,,2013-04-16 12:52:00,
2013-04-16 08:02:00,71.0,70.0,-100.00,SSW,201,1.0,6.0,97,0.00,,,0.00,5.000000,,2013-04-16 13:02:00,
2013-04-16 08:32:00,72.0,70.0,-100.00,SSE,160,2.0,6.0,95,0.00,,,0.00,34.000000,,2013-04-16 13:32:00,
2013-04-16 08:42:00,72.0,70.0,-100.00,SSE,160,2.0,6.0,95,0.00,,,0.00,34.000000,,2013-04-16 13:42:00,
2013-04-16 08:52:00,72.0,70.0,-100.00,SSE,160,2.0,6.0,95,0.00,,,0.00,34.000000,,2013-04-16 13:52:00,
2013-04-16 09:02:00,72.0,70.0,-100.00,SSE,160,2.0,6.0,95,0.00,,,0.00,34.000000,,2013-04-16 14:02:00,
2013-04-16 09:32:00,74.0,72.0,-100.00,SSW,199,2.0,5.0,92,0.00,,,0.00,87.000000,,2013-04-16 14:32:00,
2013-04-16 09:42:00,74.0,72.0,-100.00,SSW,199,2.0,5.0,92,0.00,,,0.00,87.000000,,2013-04-16 14:42:00,
2013-04-16 09:52:00,74.0,72.0,-100.00,SSW,199,2.0,5.0,92,0.00,,,0.00,87.000000,,2013-04-16 14:52:00,
2013-04-16 10:02:00,74.0,72.0,-100.00,SSW,199,2.0,5.0,92,0.00,,,0.00,87.000000,,2013-04-16 15:02:00,
2013-04-16 10:33:00,77.0,72.0,-100.00,SW,220,3.0,9.0,86,0.00,,,0.00,219.000000,,2013-04-16 15:33:00,
2013-04-16 10:43:00,77.0,72.0,-100.00,SW,220,3.0,9.0,86,0.00,,,0.00,219.000000,,2013-04-16 15:43:00,
2013-04-16 10:53:00,77.0,72.0,-100.00,SW,220,3.0,9.0,86,0.00,,,0.00,219.000000,,2013-04-16 15:53:00,
2013-04-16 11:03:00,77.0,72.0,-100.00,SW,220,3.0,9.0,86,0.00,,,0.00,219.000000,,2013-04-16 16:03:00,
2013-04-16 11:33:00,81.0,72.0,-100.00,SSW,209,3.0,9.0,73,0.00,,,0.00,347.000000,,2013-04-16 16:33:00,
2013-04-16 11:42:00,81.0,72.0,-100.00,SSW,209,3.0,9.0,73,0.00,,,0.00,347.000000,,2013-04-16 16:42:00,
2013-04-16 11:53:00,81.0,72.0,-100.00,SSW,209,3.0,9.0,73,0.00,,,0.00,347.000000,,2013-04-16 16:53:00,
2013-04-16 12:02:00,81.0,72.0,-100.00,SSW,209,3.0,9.0,73,0.00,,,0.00,347.000000,,2013-04-16 17:02:00,
2013-04-16 12:33:00,82.0,71.0,-100.00,SSW,192,4.0,11.0,69,0.00,,,0.00,405.000000,,2013-04-16 17:33:00,
2013-04-16 12:43:00,82.0,71.0,-100.00,SSW,192,4.0,11.0,69,0.00,,,0.00,405.000000,,2013-04-16 17:43:00,
2013-04-16 12:53:00,82.0,71.0,-100.00,SSW,192,4.0,11.0,69,0.00,,,0.00,405.000000,,2013-04-16 17:53:00,
2013-04-16 13:02:00,82.0,71.0,-100.00,SSW,192,4.0,11.0,69,0.00,,,0.00,405.000000,,2013-04-16 18:02:00,
2013-04-16 13:32:00,85.0,71.0,-100.00,SSW,207,4.0,11.0,63,0.00,,,0.00,443.000000,,2013-04-16 18:32:00,
2013-04-16 13:43:00,85.0,71.0,-100.00,SSW,207,4.0,11.0,63,0.00,,,0.00,443.000000,,2013-04-16 18:43:00,
2013-04-16 13:52:00,85.0,71.0,-100.00,SSW,207,4.0,11.0,63,0.00,,,0.00,443.000000,,2013-04-16 18:52:00,
2013-04-16 14:02:00,85.0,71.0,-100.00,SSW,207,4.0,11.0,63,0.00,,,0.00,443.000000,,2013-04-16 19:02:00,
2013-04-16 14:32:00,86.0,68.0,-100.00,SSW,212,6.0,13.0,56,0.00,,,0.00,659.000000,,2013-04-16 19:32:00,
2013-04-16 14:43:00,86.0,68.0,-100.00,SSW,212,6.0,13.0,56,0.00,,,0.00,659.000000,,2013-04-16 19:43:00,
2013-04-16 14:52:00,86.0,68.0,-100.00,SSW,212,6.0,13.0,56,0.00,,,0.00,659.000000,,2013-04-16 19:52:00,
2013-04-16 15:02:00,86.0,68.0,-100.00,SSW,212,6.0,13.0,56,0.00,,,0.00,659.000000,,2013-04-16 20:02:00,
2013-04-16 15:32:00,85.0,68.0,-100.00,SW,220,5.0,12.0,56,0.00,,,0.00,510.000000,,2013-04-16 20:32:00,
2013-04-16 15:42:00,85.0,68.0,-100.00,SW,220,5.0,12.0,56,0.00,,,0.00,510.000000,,2013-04-16 20:42:00,
2013-04-16 15:52:00,85.0,68.0,-100.00,SW,220,5.0,12.0,56,0.00,,,0.00,510.000000,,2013-04-16 20:52:00,
2013-04-16 16:02:00,85.0,68.0,-100.00,SW,220,5.0,12.0,56,0.00,,,0.00,510.000000,,2013-04-16 21:02:00,
2013-04-16 16:33:00,85.0,67.0,-100.00,South,172,5.0,12.0,55,0.00,,,0.00,472.000000,,2013-04-16 21:33:00,
2013-04-16 16:43:00,85.0,67.0,-100.00,South,172,5.0,12.0,55,0.00,,,0.00,472.000000,,2013-04-16 21:43:00,
2013-04-16 16:53:00,85.0,67.0,-100.00,South,172,5.0,12.0,55,0.00,,,0.00,472.000000,,2013-04-16 21:53:00,
2013-04-16 17:02:00,85.0,67.0,-100.00,South,172,5.0,12.0,55,0.00,,,0.00,472.000000,,2013-04-16 22:02:00,
2013-04-16 17:33:00,86.0,68.0,-100.00,SSW,205,3.0,10.0,56,0.00,,,0.00,358.000000,,2013-04-16 22:33:00,
2013-04-16 17:43:00,86.0,68.0,-100.00,SSW,205,3.0,10.0,56,0.00,,,0.00,358.000000,,2013-04-16 22:43:00,
2013-04-16 17:52:00,86.0,68.0,-100.00,SSW,205,3.0,10.0,56,0.00,,,0.00,358.000000,,2013-04-16 22:52:00,
2013-04-16 18:02:00,86.0,68.0,-100.00,SSW,205,3.0,10.0,56,0.00,,,0.00,358.000000,,2013-04-16 23:02:00,
2013-04-16 18:32:00,82.0,69.0,-100.00,SSW,193,2.0,11.0,64,0.00,,,0.00,204.000000,,2013-04-16 23:32:00,
2013-04-16 18:43:00,82.0,69.0,-100.00,SSW,193,2.0,11.0,64,0.00,,,0.00,204.000000,,2013-04-16 23:43:00,
2013-04-16 18:52:00,82.0,69.0,-100.00,SSW,193,2.0,11.0,64,0.00,,,0.00,204.000000,,2013-04-16 23:52:00,
2013-04-16 19:02:00,82.0,69.0,-100.00,SSW,193,2.0,11.0,64,0.00,,,0.00,204.000000,,2013-04-17 00:02:00,
2013-04-16 19:32:00,78.0,69.0,-100.00,SSW,201,2.0,8.0,74,0.00,,,-99.99,48.000000,,2013-04-17 00:32:00,
2013-04-16 19:42:00,78.0,69.0,-100.00,SSW,201,2.0,8.0,74,0.00,,,-99.99,48.000000,,2013-04-17 00:42:00,
2013-04-16 19:52:00,78.0,69.0,-100.00,SSW,201,2.0,8.0,74,0.00,,,-99.99,48.000000,,2013-04-17 00:52:00,
2013-04-16 20:02:00,78.0,69.0,-100.00,SSW,201,2.0,8.0,74,0.00,,,-99.99,48.000000,,2013-04-17 01:02:00,
2013-04-16 20:32:00,75.0,70.0,-100.00,SSW,200,1.0,8.0,84,0.00,,,0.00,3.000000,,2013-04-17 01:32:00,
2013-04-16 20:42:00,75.0,70.0,-100.00,SSW,200,1.0,8.0,84,0.00,,,0.00,3.000000,,2013-04-17 01:42:00,
2013-04-16 20:52:00,75.0,70.0,-100.00,SSW,200,1.0,8.0,84,0.00,,,0.00,3.000000,,2013-04-17 01:52:00,
2013-04-16 21:02:00,75.0,70.0,-100.00,SSW,200,1.0,8.0,84,0.00,,,0.00,3.000000,,2013-04-17 02:02:00,
2013-04-16 21:32:00,73.0,70.0,-100.00,SSW,209,2.0,7.0,89,0.00,,,0.00,0.000000,,2013-04-17 02:32:00,
2013-04-16 21:42:00,73.0,70.0,-100.00,SSW,209,2.0,7.0,89,0.00,,,0.00,0.000000,,2013-04-17 02:42:00,
2013-04-16 21:52:00,73.0,70.0,-100.00,SSW,209,2.0,7.0,89,0.00,,,0.00,0.000000,,2013-04-17 02:52:00,
2013-04-16 22:02:00,73.0,70.0,-100.00,SSW,209,2.0,7.0,89,0.00,,,0.00,0.000000,,2013-04-17 03:02:00,
2013-04-16 22:33:00,72.0,70.0,-100.00,SSW,213,1.0,5.0,92,0.00,,,0.00,0.000000,,2013-04-17 03:33:00,
2013-04-16 22:42:00,72.0,70.0,-100.00,SSW,213,1.0,5.0,92,0.00,,,0.00,0.000000,,2013-04-17 03:42:00,
2013-04-16 22:53:00,72.0,70.0,-100.00,SSW,213,1.0,5.0,92,0.00,,,0.00,0.000000,,2013-04-17 03:53:00,
2013-04-16 23:03:00,72.0,70.0,-100.00,SSW,213,1.0,5.0,92,0.00,,,0.00,0.000000,,2013-04-17 04:03:00,
2013-04-16 23:33:00,72.0,70.0,-100.00,SSW,211,1.0,8.0,92,0.00,,,0.00,0.000000,,2013-04-17 04:33:00,
2013-04-16 23:42:00,72.0,70.0,-100.00,SSW,211,1.0,8.0,92,0.00,,,0.00,0.000000,,2013-04-17 04:42:00,
2013-04-16 23:52:00,72.0,70.0,-100.00,SSW,211,1.0,8.0,92,0.00,,,0.00,0.000000,,2013-04-17 04:52:00,